Time,TemperatureF,DewpointF,PressureIn,WindDirection,WindDirectionDegrees,WindSpeedMPH,WindSpeedGustMPH,Humidity,HourlyPrecipIn,Conditions,Clouds,dailyrainin,SoftwareType,DateUTC
2013-01-31 07:01:00,22.0,20.0,30.01,North,360,4.0,6.0,90,0.00,,,0.00,,2013-01-31 14:01:00,
2013-01-31 07:11:00,22.0,20.0,30.01,North,360,4.0,6.0,90,0.00,,,0.00,,2013-01-31 14:11:00,
2013-01-31 07:21:00,22.0,20.0,30.03,North,360,1.0,2.0,92,0.00,,,0.00,,2013-01-31 14:21:00,
2013-01-31 07:31:00,22.0,20.0,30.03,NW,315,2.0,4.0,93,0.00,,,0.00,,2013-01-31 14:31:00,
2013-01-31 07:41:00,22.0,20.0,30.03,NW,315,2.0,4.0,93,0.00,,,0.00,,2013-01-31 14:41:00,
2013-01-31 07:52:00,22.0,20.0,30.03,NW,315,1.0,2.0,93,0.00,,,0.00,,2013-01-31 14:52:00,
2013-01-31 08:02:00,22.0,20.0,30.05,NW,315,2.0,2.0,93,0.00,,,0.00,,2013-01-31 15:02:00,
2013-01-31 08:11:00,22.0,20.0,30.06,NW,315,0.0,0.0,93,0.00,,,0.00,,2013-01-31 15:11:00,
2013-01-31 08:21:00,22.0,20.0,30.06,NW,315,0.0,0.0,93,0.00,,,0.00,,2013-01-31 15:21:00,
2013-01-31 08:31:00,24.0,22.0,30.08,NW,315,0.0,0.0,93,0.00,,,0.00,,2013-01-31 15:31:00,
2013-01-31 08:42:00,24.0,22.0,30.08,NW,315,0.0,0.0,93,0.00,,,0.00,,2013-01-31 15:42:00,
2013-01-31 08:51:00,24.0,22.0,30.09,NW,315,0.0,0.0,92,0.00,,,0.00,,2013-01-31 15:51:00,
2013-01-31 09:02:00,24.0,22.0,30.09,NW,315,0.0,0.0,92,0.00,,,0.00,,2013-01-31 16:02:00,
2013-01-31 09:11:00,24.0,22.0,30.10,NW,315,0.0,0.0,92,0.00,,,0.00,,2013-01-31 16:11:00,
2013-01-31 09:21:00,24.0,22.0,30.10,NW,315,0.0,0.0,92,0.00,,,0.00,,2013-01-31 16:21:00,
2013-01-31 09:32:00,25.0,22.0,30.11,South,180,2.0,3.0,90,0.00,,,0.00,,2013-01-31 16:32:00,
2013-01-31 09:41:00,25.0,22.0,30.11,South,180,2.0,3.0,90,0.00,,,0.00,,2013-01-31 16:41:00,
2013-01-31 09:51:00,25.0,22.0,30.11,South,180,2.0,3.0,90,0.00,,,0.00,,2013-01-31 16:51:00,
2013-01-31 10:01:00,25.0,22.0,30.13,SW,225,3.0,4.0,90,0.00,,,0.00,,2013-01-31 17:01:00,
2013-01-31 10:11:00,25.0,22.0,30.13,SW,225,3.0,4.0,90,0.00,,,0.00,,2013-01-31 17:11:00,
2013-01-31 10:22:00,27.0,23.0,30.12,SSW,202,2.0,3.0,84,0.00,,,0.00,,2013-01-31 17:22:00,
2013-01-31 10:31:00,28.0,22.0,30.14,SSW,202,2.0,3.0,78,0.00,,,0.00,,2013-01-31 17:31:00,
2013-01-31 10:42:00,28.0,22.0,30.14,SSW,202,2.0,3.0,78,0.00,,,0.00,,2013-01-31 17:42:00,
2013-01-31 10:53:00,30.0,23.0,30.14,SW,225,1.0,2.0,75,0.00,,,0.00,,2013-01-31 17:53:00,
2013-01-31 11:01:00,35.0,24.0,30.16,SW,225,2.0,2.0,65,0.00,,,0.00,,2013-01-31 18:01:00,
2013-01-31 11:11:00,36.0,23.0,30.16,East,90,2.0,3.0,60,0.00,,,0.00,,2013-01-31 18:11:00,
2013-01-31 11:21:00,36.0,23.0,30.16,East,90,2.0,3.0,60,0.00,,,0.00,,2013-01-31 18:21:00,
2013-01-31 11:31:00,38.0,24.0,30.16,East,90,1.0,1.0,57,0.00,,,0.00,,2013-01-31 18:31:00,
2013-01-31 11:42:00,38.0,24.0,30.16,East,90,1.0,1.0,57,0.00,,,0.00,,2013-01-31 18:42:00,
2013-01-31 11:52:00,37.0,24.0,30.16,NE,45,3.0,4.0,59,0.00,,,0.00,,2013-01-31 18:52:00,
2013-01-31 12:01:00,38.0,25.0,30.15,East,90,2.0,2.0,58,0.00,,,0.00,,2013-01-31 19:01:00,
2013-01-31 12:11:00,38.0,25.0,30.15,East,90,2.0,2.0,58,0.00,,,0.00,,2013-01-31 19:11:00,
2013-01-31 12:21:00,39.0,25.0,30.15,SE,135,1.0,2.0,57,0.00,,,0.00,,2013-01-31 19:21:00,
2013-01-31 12:31:00,41.0,26.0,30.14,NE,45,3.0,5.0,54,0.00,,,0.00,,2013-01-31 19:31:00,
2013-01-31 12:42:00,41.0,26.0,30.14,NE,45,3.0,5.0,54,0.00,,,0.00,,2013-01-31 19:42:00,
2013-01-31 12:51:00,43.0,25.0,30.15,NNE,22,1.0,2.0,49,0.00,,,0.00,,2013-01-31 19:51:00,
2013-01-31 13:01:00,42.0,25.0,30.15,NNE,22,1.0,2.0,50,0.00,,,0.00,,2013-01-31 20:01:00,
2013-01-31 13:11:00,42.0,25.0,30.14,NNE,22,2.0,4.0,50,0.00,,,0.00,,2013-01-31 20:11:00,
2013-01-31 13:21:00,42.0,25.0,30.14,NNE,22,2.0,4.0,50,0.00,,,0.00,,2013-01-31 20:21:00,
2013-01-31 13:31:00,42.0,22.0,30.14,North,360,4.0,8.0,45,0.00,,,0.00,,2013-01-31 20:31:00,
2013-01-31 13:41:00,42.0,23.0,30.14,NW,315,1.0,2.0,46,0.00,,,0.00,,2013-01-31 20:41:00,
2013-01-31 13:51:00,42.0,23.0,30.14,NW,315,1.0,2.0,46,0.00,,,0.00,,2013-01-31 20:51:00,
2013-01-31 14:01:00,42.0,22.0,30.13,North,360,5.0,7.0,45,0.00,,,0.00,,2013-01-31 21:01:00,
2013-01-31 14:11:00,42.0,22.0,30.13,NE,45,4.0,5.0,44,0.00,,,0.00,,2013-01-31 21:11:00,
2013-01-31 14:21:00,42.0,22.0,30.13,NE,45,4.0,5.0,44,0.00,,,0.00,,2013-01-31 21:21:00,
2013-01-31 14:31:00,42.0,21.0,30.13,North,360,2.0,3.0,43,0.00,,,0.00,,2013-01-31 21:31:00,
2013-01-31 14:42:00,42.0,21.0,30.13,North,360,2.0,3.0,43,0.00,,,0.00,,2013-01-31 21:42:00,
2013-01-31 14:51:00,43.0,24.0,30.14,NE,45,3.0,5.0,46,0.00,,,0.00,,2013-01-31 21:51:00,
2013-01-31 15:02:00,42.0,21.0,30.14,ESE,112,2.0,3.0,42,0.00,,,0.00,,2013-01-31 22:02:00,
2013-01-31 15:11:00,43.0,22.0,30.13,ESE,112,1.0,2.0,42,0.00,,,0.00,,2013-01-31 22:11:00,
2013-01-31 15:21:00,43.0,22.0,30.13,ESE,112,1.0,2.0,42,0.00,,,0.00,,2013-01-31 22:21:00,
2013-01-31 15:32:00,43.0,22.0,30.13,NNW,337,4.0,6.0,42,0.00,,,0.00,,2013-01-31 22:32:00,
2013-01-31 15:41:00,43.0,22.0,30.13,NNW,337,4.0,6.0,42,0.00,,,0.00,,2013-01-31 22:41:00,
2013-01-31 15:51:00,43.0,21.0,30.13,North,360,2.0,4.0,41,0.00,,,0.00,,2013-01-31 22:51:00,
2013-01-31 16:01:00,43.0,22.0,30.13,NNE,22,2.0,3.0,42,0.00,,,0.00,,2013-01-31 23:01:00,
2013-01-31 16:11:00,43.0,22.0,30.13,North,360,1.0,2.0,42,0.00,,,0.00,,2013-01-31 23:11:00,
2013-01-31 16:21:00,43.0,22.0,30.13,North,360,1.0,2.0,42,0.00,,,0.00,,2013-01-31 23:21:00,
2013-01-31 16:31:00,43.0,20.0,30.13,North,360,0.0,1.0,40,0.00,,,0.00,,2013-01-31 23:31:00,
2013-01-31 16:41:00,43.0,20.0,30.13,North,360,0.0,1.0,40,0.00,,,0.00,,2013-01-31 23:41:00,
2013-01-31 16:52:00,43.0,23.0,30.14,WNW,292,2.0,2.0,45,0.00,,,0.00,,2013-01-31 23:52:00,
2013-01-31 17:01:00,41.0,21.0,30.13,NW,315,2.0,2.0,45,0.00,,,0.00,,2013-02-01 00:01:00,
2013-01-31 17:11:00,41.0,21.0,30.13,NW,315,2.0,2.0,45,0.00,,,0.00,,2013-02-01 00:11:00,
2013-01-31 17:21:00,38.0,22.0,30.11,NNW,337,2.0,2.0,52,0.00,,,0.00,,2013-02-01 00:21:00,
2013-01-31 17:31:00,38.0,21.0,30.11,North,360,2.0,3.0,49,0.00,,,0.00,,2013-02-01 00:31:00,
2013-01-31 17:41:00,38.0,21.0,30.11,North,360,2.0,3.0,49,0.00,,,0.00,,2013-02-01 00:41:00,
2013-01-31 17:51:00,38.0,23.0,30.10,NNW,337,2.0,2.0,54,0.00,,,0.00,,2013-02-01 00:51:00,
2013-01-31 18:01:00,35.0,23.0,30.10,NW,315,0.0,0.0,61,0.00,,,0.00,,2013-02-01 01:01:00,
2013-01-31 18:11:00,35.0,23.0,30.10,NW,315,0.0,0.0,60,0.00,,,0.00,,2013-02-01 01:11:00,
2013-01-31 18:21:00,35.0,23.0,30.10,NW,315,0.0,0.0,60,0.00,,,0.00,,2013-02-01 01:21:00,
2013-01-31 18:31:00,34.0,23.0,30.10,NW,315,1.0,1.0,63,0.00,,,0.00,,2013-02-01 01:31:00,
2013-01-31 18:41:00,34.0,23.0,30.10,NW,315,1.0,1.0,63,0.00,,,0.00,,2013-02-01 01:41:00,
2013-01-31 18:51:00,32.0,23.0,30.10,South,180,2.0,2.0,68,0.00,,,0.00,,2013-02-01 01:51:00,
2013-01-31 19:01:00,32.0,23.0,30.10,South,180,2.0,2.0,70,0.00,,,0.00,,2013-02-01 02:01:00,
2013-01-31 19:11:00,32.0,23.0,30.10,South,180,2.0,2.0,70,0.00,,,0.00,,2013-02-01 02:11:00,
2013-01-31 19:21:00,31.0,24.0,30.09,South,180,2.0,3.0,75,0.00,,,0.00,,2013-02-01 02:21:00,
2013-01-31 19:31:00,30.0,22.0,30.09,South,180,2.0,2.0,72,0.00,,,0.00,,2013-02-01 02:31:00,
2013-01-31 19:41:00,30.0,22.0,30.09,South,180,2.0,2.0,72,0.00,,,0.00,,2013-02-01 02:41:00,
2013-01-31 19:52:00,29.0,23.0,30.09,SSE,157,4.0,5.0,77,0.00,,,0.00,,2013-02-01 02:52:00,
2013-01-31 20:01:00,29.0,21.0,30.08,ESE,112,2.0,3.0,73,0.00,,,0.00,,2013-02-01 03:01:00,
2013-01-31 20:11:00,29.0,21.0,30.08,ESE,112,2.0,3.0,73,0.00,,,0.00,,2013-02-01 03:11:00,
2013-01-31 20:21:00,30.0,21.0,30.08,SSE,157,4.0,4.0,70,0.00,,,0.00,,2013-02-01 03:21:00,
2013-01-31 20:32:00,29.0,21.0,30.09,SSE,157,3.0,4.0,72,0.00,,,0.00,,2013-02-01 03:32:00,
2013-01-31 20:41:00,29.0,21.0,30.09,SSE,157,3.0,4.0,72,0.00,,,0.00,,2013-02-01 03:41:00,
2013-01-31 20:51:00,29.0,21.0,30.09,SSE,157,3.0,4.0,72,0.00,,,0.00,,2013-02-01 03:51:00,
2013-01-31 21:01:00,26.0,21.0,30.08,South,180,3.0,4.0,81,0.00,,,0.00,,2013-02-01 04:01:00,
2013-01-31 21:11:00,26.0,21.0,30.09,SSE,157,4.0,4.0,82,0.00,,,0.00,,2013-02-01 04:11:00,
2013-01-31 21:21:00,26.0,21.0,30.09,SSE,157,4.0,4.0,82,0.00,,,0.00,,2013-02-01 04:21:00,
2013-01-31 21:31:00,25.0,20.0,30.09,South,180,3.0,4.0,82,0.00,,,0.00,,2013-02-01 04:31:00,
2013-01-31 21:41:00,25.0,20.0,30.09,South,180,3.0,4.0,82,0.00,,,0.00,,2013-02-01 04:41:00,
2013-01-31 21:52:00,25.0,20.0,30.09,SE,135,1.0,2.0,82,0.00,,,0.00,,2013-02-01 04:52:00,
2013-01-31 22:02:00,25.0,20.0,30.08,SSE,157,1.0,2.0,80,0.00,,,0.00,,2013-02-01 05:02:00,
2013-01-31 22:11:00,25.0,20.0,30.08,SSE,157,1.0,2.0,80,0.00,,,0.00,,2013-02-01 05:11:00,
2013-01-31 22:22:00,25.0,20.0,30.08,SSE,157,2.0,4.0,82,0.00,,,0.00,,2013-02-01 05:22:00,
2013-01-31 22:31:00,24.0,18.0,30.07,SE,135,2.0,4.0,79,0.00,,,0.00,,2013-02-01 05:31:00,
2013-01-31 22:41:00,24.0,18.0,30.07,SE,135,2.0,4.0,79,0.00,,,0.00,,2013-02-01 05:41:00,
2013-01-31 22:51:00,25.0,20.0,30.07,SE,135,2.0,3.0,80,0.00,,,0.00,,2013-02-01 05:51:00,
2013-01-31 23:02:00,24.0,18.0,30.07,SE,135,1.0,2.0,78,0.00,,,0.00,,2013-02-01 06:02:00,
2013-01-31 23:11:00,24.0,18.0,30.07,SE,135,1.0,2.0,78,0.00,,,0.00,,2013-02-01 06:11:00,
2013-01-31 23:21:00,23.0,18.0,30.06,ESE,112,5.0,7.0,81,0.00,,,0.00,,2013-02-01 06:21:00,
2013-01-31 23:31:00,23.0,18.0,30.06,ESE,112,4.0,5.0,80,0.00,,,0.00,,2013-02-01 06:31:00,
2013-01-31 23:41:00,23.0,18.0,30.06,ESE,112,4.0,5.0,80,0.00,,,0.00,,2013-02-01 06:41:00,
2013-01-31 23:51:00,24.0,18.0,30.06,SE,135,4.0,6.0,79,0.00,,,0.00,,2013-02-01 06:51:00,